Mount Sterling-Montgomery County (IOB)

 

Airport Diagram
No Airport Diagram Available
Current Weather/Forecast (VFR Conditions)
METAR KIOB 182335Z AUTO 00000KT 10SM OVC110 14/03 A2991 RMK AO2 PWINO
TAF

Airport Information

All Charts
General
Chart Name View
TAKEOFF MINIMUMS
TAKEOFF MINIMUMS

Approaches
Chart Name Download
RNAV (GPS) RWY 03
RNAV (GPS) RWY 21
NDB RWY 03
NDB RWY 21
RNAV (GPS) RWY 03
RNAV (GPS) RWY 21
NDB RWY 03
NDB RWY 21


Airport Statistics
Departures Arrivals Local
All Collected Stats since June 2016: 8 8 0
2021 Stats: 0 1 0
April Stats: 0 0 0

Inbound Traffic (Arrivals) - 0

No inbound traffic.


Outbound Traffic (Departures) - 0

No outbound traffic.


Local Traffic (Pattern) - 0

No local traffic.